Time,TemperatureF,DewpointF,PressureIn,WindDirection,WindDirectionDegrees,WindSpeedMPH,WindSpeedGustMPH,Humidity,HourlyPrecipIn,Conditions,Clouds,dailyrainin,SoftwareType,DateUTC
2013-07-12 00:01:00,62.0,53.0,30.06,East,89,0.0,0.0,73,0.00,,,0.00,weatherlink.com 1.10,2013-07-12 05:01:00,
2013-07-12 00:16:00,61.1,53.0,30.06,East,89,0.0,0.0,74,0.00,,,0.00,weatherlink.com 1.10,2013-07-12 05:16:00,
2013-07-12 00:30:00,60.7,53.0,30.06,East,89,0.0,0.0,76,0.00,,,0.00,weatherlink.com 1.10,2013-07-12 05:30:00,
2013-07-12 00:45:00,59.9,53.0,30.06,East,89,0.0,0.0,77,0.00,,,0.00,weatherlink.com 1.10,2013-07-12 05:45:00,
2013-07-12 00:59:00,59.8,53.0,30.07,East,89,0.0,0.0,77,0.00,,,0.00,weatherlink.com 1.10,2013-07-12 05:59:00,
2013-07-12 01:13:00,59.8,53.0,30.07,East,89,0.0,0.0,77,0.00,,,0.00,weatherlink.com 1.10,2013-07-12 06:13:00,
2013-07-12 01:28:00,59.5,53.0,30.07,East,89,0.0,0.0,78,0.00,,,0.00,weatherlink.com 1.10,2013-07-12 06:28:00,
2013-07-12 01:42:00,58.7,53.0,30.07,East,89,0.0,0.0,80,0.00,,,0.00,weatherlink.com 1.10,2013-07-12 06:42:00,
2013-07-12 01:57:00,58.7,53.0,30.07,East,87,0.0,1.0,80,0.00,,,0.00,weatherlink.com 1.10,2013-07-12 06:57:00,
2013-07-12 02:11:00,58.6,53.0,30.07,East,87,0.0,0.0,82,0.00,,,0.00,weatherlink.com 1.10,2013-07-12 07:11:00,
2013-07-12 02:25:00,58.1,53.0,30.07,East,87,0.0,1.0,84,0.00,,,0.00,weatherlink.com 1.10,2013-07-12 07:25:00,
2013-07-12 02:40:00,57.8,53.0,30.07,ENE,73,0.0,1.0,84,0.00,,,0.00,weatherlink.com 1.10,2013-07-12 07:40:00,
2013-07-12 02:54:00,57.6,53.0,30.09,NNE,17,0.0,0.0,84,0.00,,,0.00,weatherlink.com 1.10,2013-07-12 07:54:00,
2013-07-12 03:09:00,57.3,53.0,30.09,North,7,1.0,1.0,86,0.00,,,0.00,weatherlink.com 1.10,2013-07-12 08:09:00,
2013-07-12 03:23:00,57.1,53.0,30.09,North,4,0.0,2.0,87,0.00,,,0.00,weatherlink.com 1.10,2013-07-12 08:23:00,
2013-07-12 03:38:00,56.9,53.0,30.09,North,4,0.0,1.0,88,0.00,,,0.00,weatherlink.com 1.10,2013-07-12 08:38:00,
2013-07-12 03:52:00,56.8,53.0,30.09,North,1,0.0,0.0,88,0.00,,,0.00,weatherlink.com 1.10,2013-07-12 08:52:00,
2013-07-12 04:07:00,57.0,53.0,30.09,North,358,0.0,1.0,87,0.00,,,0.00,weatherlink.com 1.10,2013-07-12 09:07:00,
2013-07-12 04:21:00,57.1,53.0,30.09,North,349,1.0,1.0,86,0.00,,,0.00,weatherlink.com 1.10,2013-07-12 09:21:00,
2013-07-12 04:35:00,57.1,53.0,30.09,North,349,0.0,1.0,86,0.00,,,0.00,weatherlink.com 1.10,2013-07-12 09:35:00,
2013-07-12 04:50:00,56.8,53.0,30.09,North,349,0.0,0.0,86,0.00,,,0.00,weatherlink.com 1.10,2013-07-12 09:50:00,
2013-07-12 05:05:00,56.7,52.0,30.09,North,349,0.0,0.0,85,0.00,,,0.00,weatherlink.com 1.10,2013-07-12 10:05:00,
2013-07-12 05:19:00,56.7,52.0,30.09,North,349,0.0,0.0,83,0.00,,,0.00,weatherlink.com 1.10,2013-07-12 10:19:00,
2013-07-12 05:33:00,56.5,51.0,30.09,North,349,0.0,0.0,83,0.00,,,0.00,weatherlink.com 1.10,2013-07-12 10:33:00,
2013-07-12 05:47:00,56.6,52.0,30.10,North,349,0.0,0.0,84,0.00,,,0.00,weatherlink.com 1.10,2013-07-12 10:47:00,
2013-07-12 06:02:00,56.9,51.0,30.11,NNW,347,1.0,1.0,81,0.00,,,0.00,weatherlink.com 1.10,2013-07-12 11:02:00,
2013-07-12 06:16:00,57.2,52.0,30.10,NNW,346,0.0,1.0,82,0.00,,,0.00,weatherlink.com 1.10,2013-07-12 11:16:00,
2013-07-12 06:31:00,57.7,52.0,30.09,NNW,346,0.0,0.0,82,0.00,,,0.00,weatherlink.com 1.10,2013-07-12 11:31:00,
2013-07-12 06:45:00,58.4,52.0,30.09,NNW,347,0.0,0.0,78,0.00,,,0.00,weatherlink.com 1.10,2013-07-12 11:45:00,
2013-07-12 06:59:00,60.3,54.0,30.10,NNW,347,0.0,0.0,81,0.00,,,0.00,weatherlink.com 1.10,2013-07-12 11:59:00,
2013-07-12 07:14:00,61.0,55.0,30.11,NNW,346,0.0,0.0,82,0.00,,,0.00,weatherlink.com 1.10,2013-07-12 12:14:00,
2013-07-12 07:28:00,63.0,57.0,30.11,NNW,347,0.0,0.0,80,0.00,,,0.00,weatherlink.com 1.10,2013-07-12 12:28:00,
2013-07-12 07:43:00,64.4,58.0,30.12,NNW,346,0.0,0.0,81,0.00,,,0.00,weatherlink.com 1.10,2013-07-12 12:43:00,
2013-07-12 07:57:00,67.1,60.0,30.12,NNW,346,0.0,0.0,79,0.00,,,0.00,weatherlink.com 1.10,2013-07-12 12:57:00,
2013-07-12 08:12:00,68.6,60.0,30.12,NNW,346,0.0,0.0,73,0.00,,,0.00,weatherlink.com 1.10,2013-07-12 13:12:00,
2013-07-12 08:26:00,70.7,57.0,30.12,NNW,347,0.0,0.0,61,0.00,,,0.00,weatherlink.com 1.10,2013-07-12 13:26:00,
2013-07-12 08:41:00,72.4,60.0,30.12,NNW,345,0.0,0.0,64,0.00,,,0.00,weatherlink.com 1.10,2013-07-12 13:41:00,
2013-07-12 08:55:00,73.4,56.0,30.12,NNW,328,0.0,0.0,55,0.00,,,0.00,weatherlink.com 1.10,2013-07-12 13:55:00,
2013-07-12 09:09:00,74.1,56.0,30.12,WNW,302,0.0,0.0,54,0.00,,,0.00,weatherlink.com 1.10,2013-07-12 14:09:00,
2013-07-12 09:24:00,75.1,53.0,30.12,NW,311,0.0,0.0,47,0.00,,,0.00,weatherlink.com 1.10,2013-07-12 14:24:00,
2013-07-12 09:38:00,76.4,53.0,30.11,ESE,103,0.0,1.0,44,0.00,,,0.00,weatherlink.com 1.10,2013-07-12 14:38:00,
2013-07-12 09:53:00,76.7,54.0,30.11,East,101,0.0,1.0,46,0.00,,,0.00,weatherlink.com 1.10,2013-07-12 14:53:00,
2013-07-12 10:07:00,77.2,53.0,30.11,SSE,151,0.0,2.0,43,0.00,,,0.00,weatherlink.com 1.10,2013-07-12 15:07:00,
2013-07-12 10:21:00,77.8,54.0,30.11,NNW,342,0.0,3.0,44,0.00,,,0.00,weatherlink.com 1.10,2013-07-12 15:21:00,
2013-07-12 10:36:00,79.0,53.0,30.12,NNE,24,0.0,2.0,40,0.00,,,0.00,weatherlink.com 1.10,2013-07-12 15:36:00,
2013-07-12 10:50:00,79.7,54.0,30.11,East,94,0.0,2.0,41,0.00,,,0.00,weatherlink.com 1.10,2013-07-12 15:50:00,
2013-07-12 11:05:00,79.7,50.0,30.12,North,349,1.0,3.0,35,0.00,,,0.00,weatherlink.com 1.10,2013-07-12 16:05:00,
2013-07-12 11:19:00,80.7,54.0,30.12,SW,228,0.0,2.0,40,0.00,,,0.00,weatherlink.com 1.10,2013-07-12 16:19:00,
2013-07-12 11:34:00,81.2,48.0,30.11,ENE,61,0.0,2.0,31,0.00,,,0.00,weatherlink.com 1.10,2013-07-12 16:34:00,
2013-07-12 11:48:00,81.2,42.0,30.11,WSW,255,1.0,2.0,25,0.00,,,0.00,weatherlink.com 1.10,2013-07-12 16:48:00,
2013-07-12 12:17:00,82.8,46.0,30.10,SSW,198,0.0,2.0,28,0.00,,,0.00,weatherlink.com 1.10,2013-07-12 17:17:00,
2013-07-12 12:46:00,83.2,49.0,30.10,South,190,1.0,2.0,30,0.00,,,0.00,weatherlink.com 1.10,2013-07-12 17:46:00,
2013-07-12 13:00:00,84.5,46.0,30.09,SSE,154,1.0,2.0,26,0.00,,,0.00,weatherlink.com 1.10,2013-07-12 18:00:00,
2013-07-12 13:15:00,83.9,44.0,30.09,West,280,0.0,3.0,25,0.00,,,0.00,weatherlink.com 1.10,2013-07-12 18:15:00,
2013-07-12 13:43:00,83.5,45.0,30.09,South,171,2.0,3.0,26,0.00,,,0.00,weatherlink.com 1.10,2013-07-12 18:43:00,
2013-07-12 13:58:00,83.6,48.0,30.08,SW,230,1.0,3.0,29,0.00,,,0.00,weatherlink.com 1.10,2013-07-12 18:58:00,
2013-07-12 14:12:00,84.5,51.0,30.07,South,170,1.0,2.0,32,0.00,,,0.00,weatherlink.com 1.10,2013-07-12 19:12:00,
2013-07-12 14:41:00,85.4,55.0,30.08,ESE,106,0.0,2.0,35,0.00,,,0.00,weatherlink.com 1.10,2013-07-12 19:41:00,
2013-07-12 14:55:00,87.1,51.0,30.07,ESE,105,0.0,1.0,29,0.00,,,0.00,weatherlink.com 1.10,2013-07-12 19:55:00,
2013-07-12 15:24:00,86.3,49.0,30.07,WSW,244,0.0,1.0,28,0.00,,,0.00,weatherlink.com 1.10,2013-07-12 20:24:00,
2013-07-12 15:39:00,85.8,50.0,30.07,SW,216,0.0,2.0,29,0.00,,,0.00,weatherlink.com 1.10,2013-07-12 20:39:00,
2013-07-12 15:53:00,86.7,51.0,30.07,SW,216,0.0,1.0,29,0.00,,,0.00,weatherlink.com 1.10,2013-07-12 20:53:00,
2013-07-12 16:08:00,86.0,49.0,30.06,SW,225,0.0,1.0,28,0.00,,,0.00,weatherlink.com 1.10,2013-07-12 21:08:00,
2013-07-12 16:22:00,87.7,49.0,30.06,SW,226,0.0,0.0,26,0.00,,,0.00,weatherlink.com 1.10,2013-07-12 21:22:00,
2013-07-12 16:36:00,87.6,55.0,30.06,SW,230,0.0,1.0,33,0.00,,,0.00,weatherlink.com 1.10,2013-07-12 21:36:00,
2013-07-12 16:51:00,87.8,49.0,30.06,WSW,258,0.0,1.0,26,0.00,,,0.00,weatherlink.com 1.10,2013-07-12 21:51:00,
2013-07-12 17:05:00,87.4,50.0,30.05,WSW,249,0.0,0.0,28,0.00,,,0.00,weatherlink.com 1.10,2013-07-12 22:05:00,
2013-07-12 17:20:00,86.9,56.0,30.05,SSW,207,0.0,1.0,35,0.00,,,0.00,weatherlink.com 1.10,2013-07-12 22:20:00,
2013-07-12 17:34:00,88.0,55.0,30.05,SSW,207,0.0,0.0,33,0.00,,,0.00,weatherlink.com 1.10,2013-07-12 22:34:00,
2013-07-12 17:48:00,88.6,54.0,30.04,SW,222,1.0,2.0,31,0.00,,,0.00,weatherlink.com 1.10,2013-07-12 22:48:00,
2013-07-12 18:03:00,87.5,57.0,30.04,SW,222,0.0,0.0,36,0.00,,,0.00,weatherlink.com 1.10,2013-07-12 23:03:00,
2013-07-12 18:17:00,87.1,58.0,30.03,SW,222,0.0,0.0,37,0.00,,,0.00,weatherlink.com 1.10,2013-07-12 23:17:00,
2013-07-12 18:32:00,86.0,58.0,30.04,SW,219,0.0,0.0,39,0.00,,,0.00,weatherlink.com 1.10,2013-07-12 23:32:00,
2013-07-12 18:46:00,82.0,62.0,30.04,SW,218,0.0,0.0,50,0.00,,,0.00,weatherlink.com 1.10,2013-07-12 23:46:00,
2013-07-12 19:01:00,78.6,58.0,30.04,SW,219,0.0,0.0,50,0.00,,,0.00,weatherlink.com 1.10,2013-07-13 00:01:00,
2013-07-12 19:15:00,76.4,60.0,30.04,SW,218,0.0,0.0,56,0.00,,,0.00,weatherlink.com 1.10,2013-07-13 00:15:00,
2013-07-12 19:29:00,74.9,61.0,30.04,SW,219,0.0,0.0,62,0.00,,,0.00,weatherlink.com 1.10,2013-07-13 00:29:00,
2013-07-12 19:44:00,73.7,60.0,30.04,SW,219,0.0,0.0,63,0.00,,,0.00,weatherlink.com 1.10,2013-07-13 00:44:00,
2013-07-12 19:58:00,72.9,61.0,30.04,SW,218,0.0,0.0,66,0.00,,,0.00,weatherlink.com 1.10,2013-07-13 00:58:00,
2013-07-12 20:12:00,71.9,62.0,30.04,SW,219,0.0,0.0,70,0.00,,,0.00,weatherlink.com 1.10,2013-07-13 01:12:00,
2013-07-12 20:27:00,72.3,58.0,30.05,NNW,336,1.0,3.0,61,0.00,,,0.00,weatherlink.com 1.10,2013-07-13 01:27:00,
2013-07-12 21:10:00,70.1,59.0,30.07,NE,35,0.0,0.0,67,0.00,,,0.00,weatherlink.com 1.10,2013-07-13 02:10:00,
2013-07-12 21:24:00,69.2,57.0,30.07,NE,35,0.0,0.0,65,0.00,,,0.00,weatherlink.com 1.10,2013-07-13 02:24:00,
2013-07-12 21:39:00,68.7,57.0,30.07,NE,35,0.0,0.0,66,0.00,,,0.00,weatherlink.com 1.10,2013-07-13 02:39:00,
2013-07-12 21:53:00,68.3,57.0,30.07,NE,35,0.0,0.0,67,0.00,,,0.00,weatherlink.com 1.10,2013-07-13 02:53:00,
2013-07-12 22:08:00,68.3,57.0,30.07,NE,36,0.0,0.0,68,0.00,,,0.00,weatherlink.com 1.10,2013-07-13 03:08:00,
2013-07-12 22:22:00,67.7,57.0,30.07,NE,35,0.0,0.0,68,0.00,,,0.00,weatherlink.com 1.10,2013-07-13 03:22:00,
2013-07-12 22:36:00,67.3,57.0,30.07,NE,35,0.0,0.0,69,0.00,,,0.00,weatherlink.com 1.10,2013-07-13 03:36:00,
2013-07-12 22:51:00,67.1,57.0,30.07,NE,36,0.0,0.0,69,0.00,,,0.00,weatherlink.com 1.10,2013-07-13 03:51:00,
2013-07-12 23:05:00,66.9,57.0,30.07,NE,36,0.0,0.0,70,0.00,,,0.00,weatherlink.com 1.10,2013-07-13 04:05:00,
2013-07-12 23:19:00,66.5,56.0,30.07,NE,35,0.0,0.0,70,0.00,,,0.00,weatherlink.com 1.10,2013-07-13 04:19:00,
2013-07-12 23:34:00,66.1,57.0,30.07,NE,35,0.0,0.0,72,0.00,,,0.00,weatherlink.com 1.10,2013-07-13 04:34:00,
2013-07-12 23:48:00,65.8,57.0,30.07,NE,35,0.0,0.0,72,0.00,,,0.00,weatherlink.com 1.10,2013-07-13 04:48:00,